sat.trackr.live / text

‹ back to catalog

STARLINK-2593

NORAD 48404 · 2021-038BD

PAYLOAD ACTIVE UNKNOWN

§ Identity

Operator
Country
US
Launch date
2021-05-04
Launch site
AFETR
Launch vehicle
Mass (kg)
RCS (m²)

Purposes: comms

External: N2YO · Heavens-Above · Gunter

§ Orbital elements

Epoch: 2026-09-20T02:24:49.057056Z

Period
94.01 min
Inclination
53.1611°
Eccentricity
0.0001253
Mean motion
15.31701609 rev/d
Perigee alt
469.9 km
Apogee alt
471.6 km
Semi-major
6,848.9 km
B*
3.9938e-6
RAAN
147.9172°
Arg perigee
106.6762°
Mean anomaly
253.4377°
Rev number
29,723

§ Raw data

STARLINK-25931 48404U 21038BD  26263.10056779 -.00000241  00000+0  39938-5 0  99922 48404  53.1611 147.9172 0001253 106.6762 253.4377 15.31701609297236

JSON: /api/v1/satellites/48404 · /tle

For live sub-satellite position, see the globe view (requires WebGL).

§ Visibility from observer

Set your observer location to see the next 7 days of passes ≥ 10°. The values pass through the URL so the page stays shareable.

No JS? Fill the form by hand. The geolocation button needs JavaScript.